Vorticity
2 11 13 11 15 13 12 7 8 12 11 8 5 7 4 3 2 6 8 5 14 11 10 10 2 4 2 14 22 13 10 9 9 13 23 22 4 2 10 1 1 5 -3 9 13 2 5 4 4 6 6 7 5 6 4 3 4 3 3 3 4 4 4 3 2 2 3 3 2 3 4 6 7 7 7 6 6 6 6 6 6 6 4 3 3 4 5 6
4 13 10 10 13 11 11 6 10 11 9 8 5 6 2 2 3 6 8 6 13 10 11 9 3 7 -2 3 18 14 12 15 15 15 19 19 6 0 7 2 2 3 -1 15 13 -2 3 3 4 6 5 6 4 5 3 2 4 3 4 3 4 4 3 3 2 1 2 2 1 3 4 5 7 7 7 6 6 7 7 7 7 8 7 6 4 4 5 5
2 9 8 9 11 9 10 6 9 10 8 8 4 4 1 1 4 6 8 7 12 10 13 11 1 6 4 0 10 14 12 17 17 6 12 20 5 -0 9 5 5 5 5 18 8 -4 4 3 4 5 4 6 3 4 3 2 4 3 4 3 5 4 3 3 2 1 1 1 0 1 2 4 6 7 8 7 8 7 7 8 7 7 8 6 5 5 5 5
3 6 8 7 9 9 10 6 7 9 7 6 3 3 0 2 4 6 8 7 11 11 14 15 2 -0 12 10 3 7 12 20 16 -2 12 25 7 5 10 3 6 7 10 16 2 -3 6 3 5 5 4 6 3 4 3 2 3 3 4 3 4 3 2 3 1 1 1 1 1 1 1 2 4 5 7 7 8 8 8 8 6 6 6 6 5 4 4 4
9 7 8 5 9 8 9 7 6 9 7 5 3 2 0 3 5 6 8 8 10 12 16 17 7 -4 8 18 3 -1 12 21 14 3 20 25 8 10 8 1 6 7 11 12 -1 1 6 4 7 5 4 5 3 4 3 3 3 4 3 3 3 2 2 2 2 2 1 1 1 1 1 1 3 3 5 7 7 7 7 7 7 8 8 8 7 6 5 4
10 5 7 4 8 8 8 6 6 8 5 4 2 1 2 3 5 6 7 9 9 12 17 16 14 1 -6 13 16 4 7 14 11 8 22 21 10 12 7 2 5 4 11 8 -0 5 6 4 6 4 3 5 4 4 4 3 3 4 3 3 3 3 2 2 2 2 1 2 1 2 2 2 3 2 2 4 5 5 6 5 5 5 6 7 7 7 6 5
13 4 7 4 7 8 8 6 6 8 4 3 1 0 4 4 5 7 7 9 7 10 15 12 15 12 -9 -6 12 14 8 7 10 10 16 16 12 13 8 7 4 2 12 8 1 5 5 4 5 4 4 5 4 3 4 5 3 4 4 3 2 3 3 2 3 2 2 2 2 2 2 2 2 1 1 3 4 4 5 4 4 3 3 3 3 4 4 4
15 5 8 6 7 7 7 6 5 7 4 2 0 2 6 5 6 7 7 8 8 9 14 14 13 18 6 -13 -11 7 15 11 10 9 9 11 14 13 7 12 8 1 13 9 -2 4 5 4 4 5 6 4 5 4 4 5 3 4 4 3 3 3 3 3 3 3 3 3 3 3 2 2 2 0 1 2 2 2 3 4 4 3 3 3 3 3 3 3
15 5 8 7 8 6 6 6 5 5 3 3 0 3 6 6 6 7 8 8 9 12 17 22 20 17 15 6 -10 -6 15 18 11 9 8 9 14 12 6 14 12 2 15 10 -4 4 6 3 5 5 5 4 4 4 4 6 5 5 4 3 3 4 3 3 3 3 4 4 4 5 3 3 2 1 2 2 1 1 2 2 2 2 2 3 2 3 3 3
13 4 9 6 8 7 5 6 5 3 2 4 1 4 7 5 7 6 7 8 11 14 11 11 16 14 14 24 15 -1 15 23 13 9 10 11 12 13 9 12 11 4 15 11 -4 3 5 3 5 4 4 5 5 4 3 5 6 5 4 3 3 3 3 3 4 4 5 5 5 6 5 4 3 2 2 2 1 1 1 1 1 1 1 1 1 1 2 2
10 5 11 5 6 6 5 5 4 3 3 5 3 6 7 6 7 6 7 9 11 11 6 1 5 10 10 21 20 5 12 20 16 11 10 13 11 11 12 14 12 5 14 11 -5 0 6 4 5 4 5 6 6 5 4 4 5 6 4 4 4 3 4 3 3 4 5 5 4 5 6 5 5 5 3 3 2 1 1 1 1 1 1 1 0 1 1 0
7 5 11 6 6 4 5 4 3 3 3 5 6 7 6 7 7 6 8 9 8 5 4 4 0 1 2 3 8 9 9 10 18 16 8 12 12 9 10 17 15 5 12 9 -6 1 8 5 5 5 5 6 6 4 5 5 6 6 4 4 4 3 4 4 4 5 4 4 4 5 6 6 6 6 4 4 4 3 2 2 2 2 2 2 1 1 1 1
6 7 10 6 6 3 5 4 3 3 4 6 6 8 6 7 7 6 9 7 6 3 2 9 5 -3 -2 -3 1 13 9 1 13 19 13 11 13 10 7 19 17 4 11 6 -5 4 8 5 6 6 5 4 5 4 4 6 5 5 5 4 4 3 3 4 4 5 4 4 4 5 5 5 5 6 5 5 6 5 5 4 4 4 5 5 5 4 4 4
5 10 8 6 5 3 5 3 4 4 4 7 7 8 7 7 7 5 7 6 5 1 -4 6 9 -2 -1 2 3 14 13 1 5 16 18 13 15 14 7 22 20 3 9 4 -3 5 6 6 6 5 5 4 4 3 4 6 5 4 4 5 4 3 3 3 4 4 4 4 5 5 4 4 3 4 5 5 6 5 5 5 5 5 4 5 6 6 6 6
5 13 7 6 5 3 5 2 4 4 5 8 8 8 8 7 7 4 6 6 7 5 -3 2 12 3 3 8 4 11 15 9 5 10 19 15 16 17 10 26 23 4 9 3 -2 5 5 6 6 5 6 4 4 2 3 5 4 4 4 4 3 3 3 3 3 3 3 4 4 4 4 4 4 4 5 4 5 4 4 5 5 5 5 5 5 5 4 5
8 13 7 6 4 4 4 2 3 4 6 8 8 7 8 6 4 5 6 5 6 8 4 4 14 7 4 11 7 6 10 14 10 8 20 16 12 17 16 28 22 7 10 2 -1 6 6 6 5 6 5 4 5 2 2 4 4 4 3 4 4 4 4 3 3 3 3 3 3 3 2 3 3 4 4 3 4 4 4 4 4 4 4 5 4 4 3 3
9 10 7 6 4 4 3 2 3 5 8 7 8 8 7 7 5 5 4 5 4 5 7 8 14 9 5 12 12 8 7 14 17 13 23 20 11 16 22 29 19 9 11 2 -1 5 7 8 4 5 5 5 5 3 2 2 4 3 2 4 3 4 5 3 4 3 3 3 2 2 2 3 3 3 3 3 3 4 4 4 4 3 4 4 4 4 4 3
10 10 6 6 4 4 2 3 4 5 9 7 9 7 7 6 4 5 2 4 3 0 5 5 6 5 5 11 9 8 7 14 21 21 25 21 13 17 27 31 15 9 13 4 -0 4 7 8 5 5 5 5 5 4 3 2 4 2 2 4 3 4 4 3 4 3 3 3 3 3 2 3 2 2 4 3 3 3 3 4 4 4 4 4 4 4 4 4
9 9 5 7 3 4 2 4 5 7 9 7 8 6 7 7 5 7 4 2 0 -3 1 3 6 7 9 12 6 5 10 15 20 25 25 18 17 23 29 26 8 6 14 7 0 3 6 7 6 6 4 5 5 4 4 3 6 4 3 5 5 5 3 3 4 3 3 2 3 3 2 4 2 2 4 3 4 3 3 3 3 3 3 4 4 3 3 3
11 8 4 8 2 3 2 4 7 7 9 7 7 4 1 1 -1 -1 -2 -1 2 3 4 6 12 13 11 12 6 6 13 14 19 27 24 16 21 27 25 18 6 6 12 7 4 3 4 6 7 5 3 4 4 4 3 3 6 5 4 5 5 6 5 4 3 3 4 2 3 3 0 3 3 3 4 3 4 3 3 3 3 3 3 3 3 3 3 3
12 5 4 7 2 3 2 6 8 7 9 7 6 5 1 -1 -4 -5 -4 -1 3 8 10 7 9 11 8 9 8 12 18 18 21 29 23 15 20 21 17 13 8 8 8 5 5 3 5 7 5 4 4 4 4 5 4 4 5 4 5 5 3 5 6 4 3 3 4 2 3 3 1 3 3 4 5 4 3 3 4 4 4 4 4 4 3 3 2 3
9 4 7 5 1 2 2 8 10 7 9 7 6 6 5 4 3 4 4 4 5 9 13 9 6 7 6 6 6 10 18 20 22 27 19 11 14 14 11 11 8 9 9 4 2 4 7 6 3 3 4 5 4 5 4 4 4 3 6 5 2 4 5 4 4 3 3 4 4 3 3 3 2 4 5 4 3 3 4 4 4 5 4 5 4 4 4 3
8 5 7 4 1 2 4 9 9 8 8 6 7 6 5 4 5 7 4 5 8 8 10 6 5 7 4 4 7 11 17 20 23 27 20 8 9 12 9 9 8 8 9 5 3 6 7 5 4 4 2 4 4 3 3 3 4 5 6 6 4 3 3 3 4 3 2 3 3 2 4 3 2 2 2 3 4 4 4 3 4 5 5 6 5 5 5 5
8 6 6 3 1 3 8 10 8 8 7 7 7 5 6 4 5 5 1 5 6 5 7 3 5 10 6 5 9 13 18 21 23 27 22 11 9 11 10 10 9 8 6 4 5 6 5 4 3 2 1 4 3 2 3 3 5 6 5 6 6 3 3 3 3 4 3 3 3 2 4 4 2 2 2 3 3 3 3 4 4 5 5 5 6 6 6 6
6 6 5 1 2 6 9 9 8 7 6 7 7 5 6 5 5 4 2 5 4 6 8 4 8 10 6 8 10 13 21 25 23 21 19 10 6 9 11 12 9 7 6 3 4 7 6 2 0 2 5 4 3 3 4 6 6 5 4 5 4 2 3 3 2 4 5 4 3 2 4 4 2 2 3 3 3 3 3 4 4 5 6 6 6 6 6 6
7 6 4 1 4 9 9 9 7 7 6 6 6 6 7 6 6 6 5 3 2 5 6 6 11 6 4 10 11 15 22 23 18 14 13 6 5 10 12 12 9 7 7 5 7 8 4 1 -1 4 8 3 4 5 3 6 7 5 4 3 2 3 4 3 2 4 6 4 2 2 3 3 2 2 3 2 2 3 3 4 4 5 5 5 6 6 6 6
8 4 3 3 6 9 9 8 6 7 7 6 6 6 7 7 6 6 6 4 1 5 6 9 12 6 6 10 10 13 14 15 14 8 6 4 4 9 11 13 11 7 7 8 11 7 1 3 3 4 7 4 5 5 3 5 7 6 4 2 3 4 4 4 3 4 5 3 2 4 4 3 2 1 2 2 2 2 1 3 4 5 5 4 5 6 6 7
7 3 3 4 7 8 7 6 6 7 6 6 8 7 7 8 7 6 6 4 0 4 7 10 13 9 9 9 9 12 14 18 18 9 5 2 2 7 11 14 13 7 7 10 12 7 1 4 6 5 5 6 5 4 4 6 8 6 2 2 6 6 4 4 4 4 4 1 2 4 3 4 3 -0 0 3 3 2 1 2 4 5 5 5 5 5 5 6
6 3 3 6 8 8 8 7 5 7 7 8 8 7 8 9 7 6 7 5 1 2 6 12 15 8 5 9 10 12 15 19 17 9 7 4 2 7 11 12 12 9 8 11 9 5 4 5 7 7 7 6 6 4 6 9 10 7 2 3 7 7 5 4 4 3 3 3 4 2 1 5 5 -1 -2 2 4 3 2 2 3 5 5 5 5 5 5 5
5 3 4 7 6 5 7 7 6 10 11 9 9 8 9 10 9 5 4 5 4 4 5 13 17 6 1 8 9 9 12 14 14 8 6 5 2 5 9 8 11 11 11 13 9 2 5 8 6 8 9 6 4 4 6 9 9 7 6 7 7 6 5 4 4 2 3 6 5 1 -1 3 7 2 -3 0 3 3 3 4 3 3 4 4 5 5 5 5
2 2 5 7 6 3 4 5 7 11 10 9 10 9 9 9 9 6 3 5 7 6 6 12 14 4 3 9 9 10 10 11 13 7 2 5 3 3 6 5 7 10 11 13 11 3 4 9 7 7 9 7 4 4 5 7 6 5 6 6 7 7 5 5 4 2 4 7 4 1 -1 1 7 4 -2 -2 2 4 3 3 4 4 3 3 3 5 5 6
2 3 4 8 10 6 5 7 9 9 8 10 9 7 9 8 4 4 6 7 8 7 7 12 11 2 5 12 12 13 12 10 12 8 4 5 5 3 4 5 7 9 10 9 9 5 4 8 8 7 7 5 6 6 5 6 4 3 6 5 4 6 6 7 6 4 6 6 1 -1 -0 4 6 3 0 -2 -1 5 6 4 5 4 3 3 3 4 5 6
3 5 2 4 9 7 6 7 8 9 8 8 8 9 10 6 1 3 8 8 11 10 6 10 13 8 10 11 9 10 9 8 10 9 5 2 4 4 3 5 6 8 12 8 5 7 7 7 7 7 7 5 5 7 7 8 4 2 4 3 4 5 5 6 7 5 7 7 2 -1 1 7 5 -0 2 1 -3 1 5 6 7 5 3 3 3 4 4 5
-0 5 4 -1 2 4 3 3 3 5 7 6 8 11 7 3 3 6 9 9 11 12 5 8 14 11 11 11 11 11 6 5 9 8 6 3 3 4 5 5 4 6 12 11 7 6 6 8 7 6 6 4 5 7 7 8 8 8 7 4 4 6 4 5 8 8 9 7 3 1 4 8 5 -1 0 4 1 -2 2 5 6 6 5 3 3 4 5 5
-2 3 8 1 -1 1 2 3 2 3 5 5 6 7 3 1 4 6 9 10 13 12 4 8 17 12 9 10 10 10 5 4 7 6 6 7 6 5 4 3 4 6 7 8 10 8 4 7 7 6 6 4 5 7 6 6 7 9 9 8 8 7 4 5 6 8 10 11 7 6 7 7 5 2 -1 3 5 -1 0 4 3 4 5 5 5 5 5 6
1 -1 6 6 2 2 3 2 2 3 4 2 -1 -2 -1 3 6 6 8 10 13 13 3 6 17 13 9 11 7 4 4 4 5 7 8 7 6 7 5 3 4 7 5 4 8 9 8 8 5 5 7 5 5 5 4 6 7 6 5 7 8 9 7 7 9 8 6 10 10 6 7 6 4 5 2 2 5 2 2 3 2 3 4 5 7 6 5 6
3 0 3 7 3 2 3 2 2 3 2 2 -1 -2 0 5 6 6 10 10 10 13 7 4 13 13 8 9 7 4 3 1 1 4 7 7 7 6 6 5 4 4 6 6 5 6 9 10 7 6 7 7 8 7 6 7 7 6 6 7 6 7 6 5 8 9 5 9 12 7 5 5 4 5 3 2 4 5 5 5 4 4 4 5 6 6 6 6
3 4 4 5 3 2 1 1 3 2 1 1 1 4 5 4 4 7 9 9 9 13 9 5 11 16 13 9 8 8 6 2 1 1 3 6 9 6 4 7 5 3 5 6 7 6 5 7 8 7 8 7 6 5 6 7 6 6 8 9 8 8 8 4 5 6 3 6 12 9 6 6 5 6 6 5 7 8 7 7 6 6 7 7 5 4 5 5
1 3 4 3 1 2 1 -0 1 1 -0 -2 -3 1 5 4 5 6 7 7 9 13 13 10 11 16 18 13 9 11 8 4 3 4 3 4 6 5 5 8 7 5 5 4 6 8 6 5 5 5 6 8 8 7 6 5 5 6 6 5 4 6 8 8 9 10 7 6 10 10 7 6 6 6 8 9 9 8 6 6 6 6 6 6 5 6 6 6
3 -1 0 1 -2 -2 1 1 -0 -3 -4 -2 -0 -1 -0 4 6 4 5 5 5 10 13 13 14 16 19 18 13 9 8 8 7 5 5 5 6 5 5 8 7 7 8 6 5 6 7 8 8 6 4 5 7 7 7 7 7 9 10 8 7 6 6 6 6 8 9 8 10 10 8 8 7 7 9 9 7 7 7 4 4 4 3 4 6 7 7 8
8 3 1 1 1 1 -0 -1 -3 -4 -3 -2 1 2 -0 1 5 5 6 4 3 8 11 10 13 15 17 19 18 11 7 8 7 6 5 5 6 5 4 7 9 8 9 8 5 4 5 6 7 8 8 8 8 7 8 11 9 9 11 12 12 14 15 15 12 10 9 9 10 10 11 10 8 7 8 8 7 8 8 6 4 3 3 5 6 7 8 9
14 5 3 0 1 3 0 -2 -4 -4 2 3 -0 4 5 2 3 5 7 5 3 6 9 9 9 13 15 17 18 17 13 9 5 5 6 4 4 6 6 8 10 10 12 13 10 8 8 9 8 8 9 10 10 9 8 10 12 12 11 9 9 9 9 10 13 13 12 13 14 15 16 13 9 8 6 4 5 5 5 6 6 5 7 8 8 8 9 10
20 6 5 5 4 6 3 1 1 0 2 3 2 3 4 3 4 4 5 7 5 2 6 9 7 8 12 13 13 16 17 15 10 6 5 5 4 4 4 6 8 8 8 10 10 7 6 8 8 7 8 9 9 10 10 9 9 9 8 5 4 5 4 5 7 6 4 5 5 8 11 7 2 3 1 -2 -0 2 4 6 6 7 9 9 10 11 11 11
24 12 9 11 7 7 3 -5 -3 3 3 3 4 4 3 3 3 2 2 6 7 3 2 6 8 7 9 10 12 14 14 16 17 12 6 4 4 4 5 4 5 7 7 7 9 7 4 6 5 4 6 7 4 4 4 1 -2 -2 2 3 2 4 5 6 8 7 6 4 1 4 8 3 -2 -0 2 2 2 3 4 6 8 11 11 10 10 10 10 10
21 12 6 10 6 1 -1 -3 -3 2 5 4 3 4 3 2 3 3 2 3 6 6 3 2 5 6 8 10 12 13 13 14 18 18 14 6 1 2 7 5 2 5 8 8 9 12 12 12 9 5 6 6 2 -1 -1 2 5 6 5 5 5 4 3 3 6 8 8 5 0 3 8 7 2 1 1 3 6 7 7 8 8 8 8 8 8 8 8 7
16 11 2 -1 1 -3 -7 -2 3 3 4 5 4 4 4 3 4 4 3 2 4 6 5 4 3 2 4 7 9 10 13 13 14 17 19 16 6 -0 4 8 3 1 3 3 3 6 10 12 10 8 9 8 7 7 8 11 16 16 12 9 9 9 8 8 8 6 6 8 5 3 7 9 4 2 3 5 9 12 11 10 9 7 6 4 2 2 3 3
7 12 11 -2 -3 3 2 4 8 8 10 9 4 3 5 6 6 5 4 4 4 5 5 3 4 3 1 2 4 6 9 13 14 15 17 20 16 7 5 9 7 2 -0 -0 -0 0 4 6 5 4 7 6 6 6 4 3 5 8 9 8 7 8 9 9 11 10 9 11 9 2 4 8 7 6 8 8 8 9 8 7 8 8 7 5 4 3 3 4
8 4 12 8 2 4 8 12 13 8 9 9 4 3 6 6 6 4 4 4 3 5 7 5 3 4 3 2 2 4 6 8 11 13 13 16 18 14 11 12 14 8 -0 -4 -2 -2 1 4 3 4 7 6 6 7 4 2 3 4 5 4 2 2 0 -0 4 5 3 4 5 1 -1 1 3 4 5 3 1 1 2 3 5 5 6 7 9 9 8 6
18 14 9 6 4 6 7 12 15 9 4 4 4 4 7 7 6 5 4 5 5 4 6 9 6 2 2 3 2 2 4 5 7 9 10 12 16 16 13 13 15 15 8 -0 -2 -2 -0 3 1 1 5 5 5 8 7 5 5 4 4 5 4 3 4 5 5 1 -2 -2 0 1 -1 -2 2 3 2 3 3 2 4 6 7 8 8 7 6 5 4 4
-0 17 20 5 -3 8 13 8 9 11 8 6 4 3 5 7 6 7 5 7 11 9 6 9 10 5 2 3 4 3 3 5 7 8 8 11 15 16 17 15 16 21 19 9 1 -1 -0 2 1 -1 1 2 1 3 4 4 5 4 2 2 2 2 3 3 1 -1 -1 -1 4 10 8 4 6 8 9 11 12 10 10 9 8 8 8 7 6 3 2 2
-15 -6 20 20 1 1 10 6 3 6 8 10 10 7 7 6 6 7 7 7 12 13 8 8 13 13 6 2 3 4 3 4 4 4 6 8 10 12 17 19 18 24 28 22 14 7 1 1 1 -2 1 3 -2 -2 1 1 3 6 3 -0 -2 -4 -5 -4 -2 2 5 7 12 11 5 5 12 15 13 12 10 8 6 5 6 6 5 4 3 2 0 -0
8 -9 3 18 9 1 5 4 1 3 4 6 10 10 10 9 9 10 9 7 10 13 11 8 11 16 13 6 4 3 3 4 4 4 4 4 4 4 8 11 11 14 20 24 26 24 16 9 2 -5 -1 5 1 -1 -1 -4 -1 5 5 2 2 -0 -1 1 3 5 6 7 7 3 2 11 16 10 5 5 5 4 3 2 4 4 4 3 1 0 -1 -1
Height
5634 5640 5646 5652 5659 5665 5671 5676 5682 5688 5692 5696 5701 5706 5710 5714 5718 5722 5725 5728 5731 5733 5736 5740 5743 5745 5747 5749 5751 5755 5758 5762 5766 5770 5775 5780 5783 5787 5792 5797 5800 5804 5806 5810 5815 5819 5822 5826 5830 5835 5838 5841 5843 5845 5847 5849 5851 5853 5855 5857 5859 5860 5862 5864 5865 5866 5868 5869 5870 5871 5872 5873 5874 5875 5875 5876 5877 5878 5879 5880 5881 5882 5883 5883 5884 5885 5886 5886
5630 5636 5642 5648 5655 5662 5667 5672 5679 5684 5688 5693 5698 5702 5707 5710 5714 5718 5721 5724 5727 5729 5732 5737 5740 5742 5745 5747 5749 5752 5755 5760 5764 5769 5774 5777 5779 5784 5790 5795 5798 5802 5804 5809 5813 5817 5821 5825 5829 5833 5837 5840 5843 5844 5846 5848 5850 5852 5854 5856 5857 5859 5861 5863 5865 5867 5868 5869 5870 5871 5872 5873 5874 5875 5876 5876 5877 5878 5879 5880 5881 5882 5883 5883 5884 5885 5886 5886
5625 5631 5638 5644 5651 5658 5663 5669 5675 5680 5685 5690 5695 5699 5703 5707 5711 5714 5718 5721 5724 5726 5729 5734 5737 5740 5743 5745 5748 5750 5754 5758 5762 5768 5771 5773 5776 5782 5788 5792 5796 5799 5802 5806 5810 5815 5818 5822 5827 5831 5836 5839 5841 5843 5845 5847 5849 5852 5854 5855 5856 5858 5861 5863 5865 5866 5867 5868 5870 5871 5872 5873 5874 5875 5876 5877 5878 5878 5879 5881 5882 5882 5883 5884 5884 5885 5886 5887
5621 5626 5633 5640 5647 5654 5660 5665 5671 5677 5682 5687 5692 5696 5700 5704 5708 5711 5715 5718 5720 5723 5726 5730 5734 5737 5740 5742 5745 5748 5752 5755 5760 5766 5768 5769 5774 5780 5785 5790 5793 5797 5800 5804 5808 5812 5815 5819 5824 5829 5833 5837 5839 5841 5844 5846 5848 5850 5851 5853 5855 5858 5860 5862 5864 5866 5867 5868 5869 5870 5872 5873 5874 5875 5876 5877 5878 5878 5879 5880 5882 5883 5883 5884 5885 5885 5886 5887
5618 5623 5629 5636 5644 5650 5656 5662 5668 5673 5679 5684 5689 5693 5697 5701 5705 5708 5712 5715 5718 5720 5723 5727 5731 5734 5737 5739 5741 5745 5748 5751 5757 5762 5763 5766 5771 5777 5782 5786 5790 5794 5797 5801 5806 5810 5813 5817 5822 5826 5830 5834 5836 5838 5841 5844 5846 5848 5849 5852 5855 5857 5859 5861 5863 5865 5866 5867 5868 5870 5871 5873 5874 5875 5876 5877 5878 5879 5880 5880 5881 5882 5883 5883 5884 5885 5886 5887
5614 5619 5625 5632 5640 5647 5653 5659 5664 5670 5675 5680 5685 5690 5694 5698 5702 5706 5709 5712 5715 5717 5721 5725 5729 5732 5735 5737 5740 5743 5745 5749 5754 5757 5759 5763 5769 5774 5778 5782 5787 5791 5794 5799 5803 5807 5811 5815 5820 5824 5828 5831 5834 5837 5840 5843 5846 5847 5849 5852 5854 5856 5858 5861 5863 5864 5865 5866 5867 5869 5870 5872 5874 5875 5876 5877 5878 5879 5880 5880 5881 5882 5883 5883 5884 5885 5886 5887
5611 5616 5622 5629 5636 5643 5649 5655 5661 5667 5672 5677 5682 5687 5691 5695 5699 5703 5706 5710 5713 5715 5719 5723 5726 5730 5732 5736 5739 5742 5744 5747 5751 5752 5755 5761 5766 5770 5774 5779 5784 5787 5791 5796 5801 5805 5809 5814 5819 5823 5827 5830 5834 5837 5839 5842 5844 5846 5848 5850 5852 5855 5857 5859 5862 5863 5864 5866 5867 5868 5870 5871 5873 5874 5875 5876 5878 5879 5880 5881 5881 5882 5883 5884 5884 5885 5886 5887
5608 5613 5619 5625 5633 5640 5646 5651 5657 5663 5669 5674 5679 5684 5689 5693 5697 5700 5704 5709 5712 5715 5719 5721 5724 5727 5730 5734 5737 5740 5741 5743 5746 5748 5753 5758 5762 5767 5771 5777 5781 5785 5789 5794 5799 5804 5808 5812 5817 5822 5826 5830 5833 5836 5838 5840 5841 5844 5847 5849 5851 5853 5855 5858 5861 5862 5863 5865 5866 5867 5869 5870 5872 5874 5875 5876 5877 5878 5880 5880 5881 5882 5883 5884 5885 5885 5886 5887
5605 5610 5616 5622 5629 5637 5643 5648 5654 5660 5666 5671 5676 5681 5686 5690 5694 5698 5702 5707 5710 5714 5718 5720 5723 5724 5727 5730 5734 5737 5737 5738 5742 5746 5750 5754 5758 5763 5768 5774 5779 5782 5786 5791 5797 5801 5806 5811 5816 5820 5824 5828 5832 5836 5838 5839 5840 5843 5846 5848 5850 5852 5854 5857 5859 5861 5862 5863 5865 5866 5868 5869 5871 5873 5874 5875 5876 5878 5879 5880 5881 5882 5882 5883 5884 5885 5886 5887
5602 5607 5613 5620 5627 5633 5639 5645 5651 5657 5662 5668 5673 5678 5683 5687 5692 5696 5700 5705 5709 5713 5716 5719 5722 5722 5725 5728 5730 5733 5733 5736 5740 5743 5747 5751 5755 5761 5766 5772 5776 5779 5784 5789 5794 5799 5804 5809 5813 5818 5823 5827 5831 5834 5836 5837 5839 5842 5844 5847 5849 5851 5853 5855 5857 5859 5861 5862 5864 5865 5867 5868 5870 5872 5873 5874 5875 5877 5878 5880 5881 5881 5882 5883 5884 5885 5886 5887
5599 5605 5611 5617 5624 5630 5636 5642 5648 5654 5660 5665 5671 5676 5680 5685 5689 5693 5698 5703 5707 5711 5714 5717 5718 5720 5723 5725 5726 5729 5729 5733 5737 5740 5745 5748 5753 5758 5762 5768 5772 5776 5781 5787 5793 5798 5802 5806 5811 5815 5820 5825 5828 5831 5833 5835 5838 5840 5843 5845 5847 5849 5851 5854 5856 5858 5860 5861 5863 5865 5866 5867 5869 5871 5872 5873 5875 5876 5877 5879 5880 5881 5882 5882 5883 5884 5885 5886
5596 5602 5608 5614 5621 5627 5633 5639 5645 5652 5657 5663 5668 5673 5678 5682 5686 5690 5695 5701 5705 5708 5712 5715 5715 5717 5720 5720 5722 5725 5726 5730 5734 5737 5742 5746 5749 5754 5759 5764 5768 5772 5778 5785 5791 5796 5800 5805 5808 5812 5816 5820 5824 5827 5830 5833 5836 5838 5840 5842 5845 5847 5849 5852 5854 5856 5858 5860 5862 5864 5865 5867 5868 5869 5871 5872 5874 5875 5876 5877 5879 5880 5881 5882 5883 5884 5884 5885
5593 5599 5605 5611 5618 5624 5630 5636 5643 5649 5655 5660 5665 5670 5675 5679 5683 5687 5692 5698 5701 5705 5710 5712 5712 5713 5715 5717 5719 5722 5723 5728 5732 5736 5740 5743 5747 5751 5756 5761 5764 5768 5775 5782 5787 5793 5798 5802 5805 5809 5813 5817 5820 5823 5827 5830 5833 5835 5837 5840 5842 5844 5847 5849 5851 5854 5856 5858 5860 5862 5864 5865 5866 5868 5869 5871 5872 5874 5875 5876 5877 5878 5879 5881 5882 5883 5883 5884
5590 5596 5602 5609 5615 5622 5628 5634 5640 5646 5652 5657 5663 5667 5672 5676 5680 5684 5689 5694 5697 5702 5706 5707 5707 5710 5712 5714 5717 5719 5721 5726 5731 5734 5737 5741 5745 5749 5754 5758 5761 5765 5772 5779 5784 5788 5793 5798 5802 5807 5810 5814 5817 5822 5825 5828 5830 5832 5834 5837 5839 5841 5844 5847 5850 5853 5855 5857 5859 5861 5862 5863 5864 5866 5868 5870 5871 5872 5874 5875 5876 5877 5878 5879 5880 5881 5882 5883
5588 5594 5600 5606 5613 5620 5625 5632 5637 5643 5649 5655 5660 5664 5669 5673 5677 5681 5686 5691 5694 5698 5702 5702 5704 5707 5709 5711 5715 5717 5720 5725 5728 5731 5735 5738 5742 5746 5751 5755 5758 5762 5768 5775 5780 5785 5789 5794 5799 5803 5808 5811 5815 5818 5822 5825 5827 5829 5832 5833 5835 5839 5843 5846 5849 5851 5853 5856 5857 5859 5860 5862 5864 5866 5867 5869 5870 5871 5873 5874 5875 5876 5877 5878 5879 5880 5880 5881
5586 5592 5598 5605 5611 5617 5623 5629 5635 5641 5647 5652 5657 5661 5665 5669 5673 5677 5682 5687 5691 5695 5698 5699 5702 5705 5706 5709 5714 5717 5720 5723 5726 5730 5733 5736 5739 5742 5746 5750 5753 5758 5765 5771 5776 5782 5786 5790 5795 5799 5805 5808 5811 5815 5818 5821 5823 5826 5829 5831 5834 5839 5842 5844 5847 5849 5852 5854 5856 5857 5859 5861 5863 5864 5866 5867 5869 5870 5871 5872 5873 5874 5875 5876 5878 5878 5879 5880
5584 5589 5596 5602 5608 5614 5620 5626 5632 5639 5644 5649 5653 5657 5661 5666 5670 5674 5678 5683 5689 5692 5694 5696 5699 5700 5702 5707 5713 5716 5719 5722 5724 5727 5730 5733 5736 5738 5742 5746 5749 5754 5761 5768 5773 5778 5783 5788 5793 5797 5801 5805 5808 5812 5815 5817 5819 5823 5825 5827 5832 5836 5839 5843 5845 5848 5850 5852 5854 5856 5858 5859 5861 5863 5864 5866 5867 5869 5870 5871 5872 5873 5874 5875 5876 5877 5877 5878
5581 5587 5594 5600 5606 5612 5618 5624 5631 5636 5641 5645 5649 5653 5658 5662 5667 5672 5677 5680 5683 5686 5689 5691 5694 5697 5702 5708 5713 5716 5718 5718 5720 5723 5726 5729 5731 5734 5738 5743 5746 5751 5757 5764 5770 5775 5780 5786 5791 5794 5797 5801 5804 5808 5812 5815 5818 5821 5823 5827 5833 5836 5839 5842 5844 5847 5849 5851 5853 5854 5856 5858 5859 5860 5862 5863 5865 5867 5868 5869 5870 5871 5872 5873 5874 5875 5876 5876
5579 5585 5592 5598 5604 5611 5617 5623 5628 5633 5637 5641 5645 5649 5653 5658 5663 5668 5672 5675 5679 5683 5688 5692 5696 5701 5707 5710 5712 5714 5714 5715 5717 5720 5722 5725 5728 5732 5735 5739 5743 5749 5754 5760 5767 5772 5778 5783 5786 5789 5793 5797 5802 5807 5812 5815 5819 5823 5827 5832 5836 5838 5840 5842 5844 5847 5848 5849 5850 5852 5855 5856 5857 5859 5860 5862 5863 5865 5866 5868 5868 5869 5870 5872 5872 5873 5874 5875
5577 5583 5590 5596 5603 5609 5615 5621 5626 5630 5634 5638 5642 5646 5649 5653 5658 5663 5668 5674 5680 5686 5691 5696 5699 5702 5705 5706 5708 5709 5710 5712 5715 5717 5720 5722 5725 5729 5732 5735 5740 5745 5752 5759 5764 5770 5775 5779 5783 5789 5794 5798 5802 5806 5809 5813 5818 5824 5827 5831 5834 5836 5838 5840 5842 5844 5844 5846 5848 5850 5852 5853 5855 5857 5859 5860 5862 5864 5865 5866 5866 5867 5869 5870 5870 5871 5872 5873
5576 5582 5588 5595 5601 5607 5613 5619 5623 5627 5632 5638 5643 5647 5652 5656 5661 5666 5672 5676 5680 5684 5689 5693 5695 5698 5700 5702 5704 5706 5707 5709 5712 5715 5717 5718 5722 5726 5729 5733 5737 5743 5749 5756 5762 5768 5772 5777 5783 5789 5794 5797 5801 5804 5808 5813 5819 5823 5825 5826 5829 5830 5832 5835 5838 5839 5841 5843 5845 5848 5850 5852 5854 5855 5857 5859 5861 5862 5862 5864 5865 5866 5867 5868 5869 5869 5870 5871
5574 5580 5587 5593 5599 5606 5612 5616 5621 5625 5631 5636 5642 5648 5653 5658 5663 5669 5673 5675 5677 5681 5685 5688 5691 5693 5696 5698 5701 5703 5705 5707 5709 5711 5713 5716 5719 5724 5728 5733 5737 5742 5747 5753 5759 5765 5769 5775 5782 5786 5790 5794 5799 5804 5808 5813 5817 5820 5822 5824 5824 5825 5828 5832 5834 5836 5839 5841 5844 5846 5849 5851 5852 5853 5855 5857 5859 5860 5860 5862 5863 5864 5865 5866 5867 5868 5868 5869
5573 5579 5585 5591 5598 5604 5609 5613 5618 5624 5630 5636 5641 5646 5650 5655 5661 5666 5669 5672 5675 5676 5679 5682 5686 5689 5692 5695 5698 5701 5703 5705 5708 5710 5712 5715 5718 5722 5728 5733 5737 5742 5746 5751 5756 5761 5767 5773 5778 5782 5787 5793 5798 5801 5805 5809 5813 5815 5818 5821 5822 5824 5827 5829 5831 5835 5838 5840 5842 5845 5847 5848 5849 5850 5853 5855 5857 5858 5859 5860 5861 5862 5864 5864 5865 5866 5867 5868
5571 5578 5584 5590 5596 5601 5606 5611 5617 5623 5629 5635 5639 5644 5649 5653 5657 5661 5665 5670 5673 5675 5677 5679 5682 5685 5688 5692 5696 5698 5700 5703 5706 5709 5711 5714 5717 5722 5727 5732 5736 5740 5745 5751 5756 5760 5765 5770 5774 5780 5785 5790 5793 5797 5801 5805 5809 5812 5815 5818 5820 5824 5826 5828 5831 5834 5835 5837 5840 5842 5843 5845 5847 5848 5851 5853 5855 5856 5857 5858 5859 5860 5862 5862 5863 5864 5865 5866
5570 5576 5582 5588 5594 5599 5604 5609 5615 5621 5627 5632 5637 5641 5646 5650 5654 5659 5663 5666 5669 5673 5677 5679 5681 5682 5684 5689 5693 5695 5698 5701 5704 5707 5710 5713 5717 5721 5726 5730 5734 5739 5745 5750 5754 5757 5762 5768 5774 5780 5783 5786 5790 5793 5798 5802 5805 5809 5813 5815 5818 5822 5824 5825 5828 5830 5831 5833 5836 5839 5840 5842 5845 5846 5848 5850 5852 5853 5855 5856 5857 5858 5859 5860 5861 5862 5863 5863
5568 5575 5581 5587 5592 5597 5602 5608 5614 5619 5624 5630 5635 5639 5643 5648 5652 5656 5660 5663 5665 5668 5673 5676 5679 5680 5683 5686 5689 5692 5695 5698 5702 5705 5708 5713 5717 5721 5725 5729 5733 5738 5743 5748 5750 5754 5760 5767 5773 5777 5781 5785 5789 5792 5795 5799 5803 5806 5809 5812 5816 5818 5820 5822 5825 5827 5828 5830 5833 5836 5837 5839 5841 5843 5845 5847 5849 5851 5852 5854 5855 5857 5858 5858 5859 5860 5861 5861
5567 5574 5579 5585 5591 5597 5603 5608 5613 5618 5623 5628 5632 5637 5641 5645 5649 5652 5656 5658 5660 5664 5669 5672 5675 5679 5682 5685 5687 5689 5692 5695 5700 5703 5706 5711 5717 5722 5726 5730 5733 5737 5741 5744 5748 5754 5761 5766 5770 5773 5777 5781 5785 5789 5793 5796 5798 5802 5806 5809 5812 5815 5818 5820 5822 5824 5825 5827 5830 5832 5834 5835 5837 5840 5843 5845 5846 5848 5850 5851 5853 5855 5855 5856 5857 5857 5858 5859
5566 5572 5578 5585 5591 5597 5603 5608 5613 5618 5622 5626 5631 5634 5638 5642 5646 5649 5651 5652 5655 5661 5666 5669 5673 5677 5680 5683 5686 5689 5692 5696 5699 5702 5706 5710 5715 5720 5724 5728 5733 5737 5741 5743 5748 5754 5760 5764 5767 5771 5774 5777 5781 5786 5790 5792 5794 5798 5803 5807 5809 5812 5815 5817 5818 5820 5822 5824 5826 5828 5830 5831 5834 5838 5840 5842 5843 5845 5847 5849 5851 5852 5853 5853 5854 5855 5855 5856
5565 5571 5578 5583 5589 5594 5600 5606 5612 5616 5619 5623 5628 5631 5635 5639 5642 5645 5647 5649 5653 5658 5663 5667 5671 5674 5677 5681 5684 5688 5692 5695 5698 5702 5706 5709 5713 5717 5722 5727 5732 5736 5740 5743 5747 5752 5757 5761 5764 5768 5771 5775 5779 5784 5787 5790 5793 5797 5801 5804 5806 5809 5811 5813 5815 5817 5819 5820 5821 5825 5827 5828 5830 5835 5837 5838 5840 5842 5845 5846 5848 5849 5850 5851 5851 5852 5853 5853
5565 5570 5576 5582 5587 5593 5599 5604 5608 5612 5616 5620 5623 5627 5631 5634 5637 5639 5641 5644 5650 5656 5661 5665 5669 5672 5675 5679 5683 5686 5690 5693 5698 5702 5705 5707 5711 5715 5720 5725 5729 5733 5737 5741 5745 5749 5754 5758 5762 5765 5769 5773 5778 5781 5784 5787 5790 5794 5797 5799 5802 5805 5807 5809 5811 5813 5814 5815 5818 5821 5824 5825 5827 5831 5834 5836 5837 5839 5842 5843 5844 5845 5847 5848 5849 5849 5850 5850
5564 5569 5575 5580 5586 5592 5597 5600 5603 5608 5613 5617 5620 5623 5626 5629 5633 5634 5637 5644 5651 5655 5659 5663 5667 5670 5674 5679 5682 5685 5688 5692 5696 5700 5704 5707 5710 5713 5717 5721 5724 5728 5732 5736 5741 5746 5750 5754 5758 5763 5767 5772 5775 5778 5780 5783 5786 5789 5792 5795 5798 5800 5802 5804 5806 5808 5809 5810 5814 5818 5822 5822 5823 5827 5831 5834 5835 5836 5838 5840 5842 5843 5844 5845 5846 5847 5847 5848
5562 5567 5573 5579 5585 5590 5595 5598 5601 5605 5609 5613 5617 5619 5622 5625 5627 5631 5637 5644 5647 5652 5658 5663 5666 5670 5674 5678 5681 5684 5687 5690 5694 5698 5702 5706 5709 5712 5715 5718 5722 5725 5728 5732 5736 5742 5746 5750 5755 5759 5763 5767 5770 5773 5775 5778 5781 5784 5787 5790 5793 5794 5796 5798 5800 5802 5804 5806 5811 5815 5818 5818 5821 5825 5829 5831 5832 5832 5834 5837 5838 5840 5841 5842 5843 5844 5844 5845
5560 5565 5571 5576 5582 5587 5590 5594 5599 5602 5605 5609 5612 5617 5620 5621 5624 5631 5638 5642 5646 5653 5660 5664 5667 5670 5672 5675 5678 5682 5686 5689 5692 5695 5699 5704 5708 5712 5715 5718 5722 5725 5728 5731 5733 5737 5741 5745 5749 5753 5757 5761 5764 5767 5770 5774 5778 5780 5783 5786 5788 5788 5790 5793 5796 5799 5801 5804 5809 5813 5815 5816 5819 5823 5826 5828 5829 5830 5831 5833 5835 5837 5838 5839 5840 5841 5841 5842
5557 5563 5569 5574 5579 5582 5586 5590 5596 5600 5603 5605 5608 5612 5616 5620 5627 5633 5636 5641 5648 5654 5658 5661 5664 5667 5669 5672 5676 5680 5683 5687 5690 5694 5697 5700 5703 5708 5712 5716 5721 5724 5727 5731 5734 5736 5739 5741 5745 5749 5752 5756 5759 5763 5767 5772 5776 5778 5781 5784 5785 5786 5789 5793 5795 5798 5801 5804 5807 5810 5811 5813 5816 5820 5823 5825 5826 5827 5828 5829 5831 5832 5834 5835 5837 5837 5838 5838
5554 5560 5566 5571 5575 5579 5583 5588 5593 5597 5600 5603 5606 5609 5612 5620 5627 5631 5636 5643 5646 5649 5654 5658 5661 5664 5666 5670 5675 5678 5681 5684 5688 5692 5695 5698 5701 5705 5710 5714 5718 5721 5725 5729 5733 5737 5740 5743 5746 5750 5752 5755 5757 5760 5765 5768 5770 5773 5777 5780 5782 5785 5788 5791 5792 5795 5798 5800 5802 5804 5807 5811 5814 5816 5819 5820 5822 5824 5824 5825 5827 5828 5830 5832 5833 5834 5834 5835
5551 5556 5562 5568 5572 5577 5581 5586 5590 5594 5598 5601 5604 5608 5614 5622 5626 5630 5636 5642 5644 5648 5651 5654 5657 5660 5663 5667 5671 5675 5679 5683 5687 5690 5693 5697 5700 5704 5708 5713 5717 5720 5724 5727 5730 5734 5738 5742 5746 5749 5752 5754 5757 5759 5763 5764 5766 5770 5772 5774 5778 5782 5785 5787 5789 5791 5794 5795 5796 5800 5804 5808 5810 5811 5813 5816 5819 5820 5821 5822 5824 5825 5826 5828 5828 5830 5830 5831
5547 5553 5559 5564 5569 5574 5579 5584 5588 5591 5595 5599 5603 5610 5617 5622 5624 5629 5634 5638 5641 5646 5648 5650 5653 5656 5661 5666 5669 5673 5677 5681 5685 5688 5692 5695 5698 5702 5707 5711 5715 5719 5723 5727 5730 5733 5736 5740 5744 5747 5748 5751 5754 5757 5760 5761 5764 5767 5769 5773 5777 5779 5781 5784 5785 5787 5790 5790 5792 5797 5801 5804 5805 5806 5810 5813 5815 5817 5818 5819 5820 5822 5823 5824 5824 5825 5826 5826
5544 5550 5556 5561 5566 5572 5577 5581 5585 5589 5593 5597 5603 5610 5615 5618 5622 5627 5632 5636 5639 5643 5646 5648 5652 5656 5660 5664 5668 5672 5675 5678 5682 5685 5689 5693 5697 5701 5706 5709 5714 5717 5720 5724 5728 5732 5735 5738 5741 5743 5746 5749 5751 5753 5755 5758 5762 5764 5767 5772 5774 5775 5777 5780 5781 5783 5786 5787 5789 5793 5797 5799 5801 5804 5807 5810 5811 5812 5813 5815 5816 5818 5819 5820 5820 5821 5822 5822
5541 5547 5553 5558 5564 5569 5573 5578 5582 5586 5590 5594 5600 5606 5610 5615 5620 5625 5630 5634 5637 5640 5643 5646 5651 5656 5660 5663 5667 5670 5673 5676 5680 5683 5687 5690 5694 5700 5704 5708 5712 5714 5717 5721 5724 5728 5732 5734 5736 5739 5742 5745 5747 5749 5752 5755 5759 5761 5764 5767 5769 5770 5773 5775 5777 5780 5783 5784 5787 5790 5793 5795 5799 5802 5803 5804 5806 5807 5809 5811 5813 5814 5814 5815 5817 5817 5818 5818
5540 5546 5551 5556 5561 5565 5570 5574 5579 5582 5586 5593 5599 5603 5607 5613 5618 5622 5627 5630 5634 5637 5641 5645 5650 5654 5657 5661 5665 5668 5672 5675 5678 5682 5686 5689 5693 5697 5702 5705 5709 5712 5715 5718 5720 5724 5727 5729 5731 5734 5737 5739 5741 5745 5749 5752 5755 5758 5761 5764 5766 5768 5770 5772 5775 5777 5779 5782 5783 5785 5787 5791 5795 5798 5798 5798 5801 5803 5805 5807 5808 5809 5810 5811 5813 5814 5814 5814
5538 5543 5548 5553 5558 5562 5566 5570 5574 5579 5586 5592 5596 5599 5605 5611 5615 5619 5624 5628 5631 5635 5639 5644 5648 5651 5655 5659 5663 5667 5670 5673 5677 5680 5684 5688 5692 5696 5701 5704 5707 5710 5711 5714 5717 5719 5722 5724 5727 5730 5732 5735 5738 5742 5746 5748 5751 5754 5757 5760 5763 5766 5767 5769 5772 5774 5777 5778 5778 5780 5782 5786 5791 5795 5794 5795 5797 5798 5800 5802 5803 5805 5806 5808 5808 5809 5810 5810
5534 5539 5545 5550 5554 5559 5563 5567 5573 5579 5584 5587 5591 5596 5602 5608 5612 5616 5621 5625 5629 5632 5637 5641 5644 5648 5652 5656 5660 5664 5667 5671 5675 5678 5682 5687 5691 5696 5699 5702 5705 5707 5709 5711 5714 5717 5719 5721 5723 5725 5728 5731 5735 5738 5741 5743 5747 5749 5752 5755 5758 5760 5762 5764 5766 5769 5771 5771 5772 5775 5776 5781 5788 5791 5791 5791 5792 5793 5795 5797 5799 5801 5802 5803 5803 5804 5804 5805
5531 5537 5542 5547 5551 5555 5559 5563 5569 5574 5578 5583 5588 5593 5599 5604 5608 5613 5618 5622 5626 5630 5634 5637 5641 5644 5648 5652 5656 5659 5663 5668 5671 5676 5681 5685 5688 5692 5695 5698 5701 5703 5705 5707 5710 5713 5716 5717 5719 5722 5724 5727 5730 5733 5735 5738 5741 5744 5747 5752 5754 5756 5758 5759 5760 5763 5764 5765 5769 5769 5770 5777 5784 5787 5787 5788 5788 5789 5790 5792 5794 5796 5797 5798 5798 5799 5799 5799
5528 5534 5539 5543 5547 5551 5555 5559 5566 5571 5575 5580 5585 5589 5594 5600 5604 5609 5614 5619 5623 5627 5631 5635 5638 5642 5645 5649 5652 5656 5660 5663 5667 5672 5676 5680 5684 5688 5691 5694 5696 5698 5701 5704 5707 5710 5712 5712 5714 5717 5719 5721 5723 5725 5728 5732 5736 5741 5745 5748 5749 5751 5753 5754 5756 5758 5759 5763 5766 5764 5767 5776 5782 5784 5785 5784 5784 5786 5786 5787 5789 5791 5792 5793 5793 5794 5794 5794
5523 5529 5534 5539 5543 5547 5552 5559 5565 5569 5572 5577 5581 5585 5590 5595 5600 5605 5610 5615 5620 5624 5628 5632 5636 5639 5643 5646 5649 5652 5655 5658 5662 5666 5670 5675 5679 5683 5686 5689 5691 5694 5698 5701 5704 5706 5707 5708 5710 5712 5713 5715 5718 5722 5727 5732 5736 5738 5741 5743 5745 5748 5749 5751 5753 5753 5755 5761 5763 5761 5767 5775 5778 5780 5780 5779 5781 5782 5782 5783 5784 5785 5786 5787 5788 5789 5789 5789
5518 5523 5528 5534 5540 5545 5551 5556 5562 5565 5569 5574 5578 5581 5586 5591 5596 5601 5606 5611 5616 5620 5624 5629 5632 5636 5639 5642 5645 5648 5651 5654 5658 5662 5666 5670 5674 5678 5681 5684 5687 5689 5693 5696 5698 5700 5700 5703 5706 5708 5711 5715 5720 5725 5730 5733 5733 5734 5738 5741 5743 5745 5747 5748 5747 5748 5753 5758 5757 5759 5766 5770 5772 5775 5775 5774 5776 5776 5776 5777 5779 5779 5780 5781 5783 5783 5783 5784
5514 5519 5524 5529 5535 5542 5547 5553 5557 5561 5566 5572 5575 5579 5583 5587 5592 5596 5601 5606 5611 5616 5620 5624 5628 5632 5635 5638 5642 5645 5648 5651 5654 5658 5662 5665 5669 5673 5676 5679 5681 5684 5688 5691 5692 5693 5694 5697 5701 5704 5708 5712 5717 5720 5723 5725 5726 5730 5734 5736 5738 5739 5741 5740 5740 5746 5751 5750 5749 5757 5763 5764 5766 5769 5768 5769 5770 5770 5771 5772 5772 5773 5774 5775 5777 5777 5778 5779
5511 5517 5523 5528 5533 5538 5544 5550 5555 5559 5563 5568 5571 5575 5579 5584 5588 5592 5597 5602 5607 5612 5615 5619 5623 5628 5632 5636 5639 5642 5645 5647 5649 5653 5657 5661 5665 5668 5671 5673 5676 5679 5683 5684 5685 5688 5690 5693 5697 5701 5704 5708 5711 5713 5716 5718 5721 5724 5726 5728 5731 5732 5732 5733 5736 5742 5744 5741 5745 5755 5758 5757 5761 5761 5761 5763 5764 5763 5765 5766 5766 5767 5768 5770 5772 5772 5773 5773
5510 5515 5521 5527 5532 5538 5543 5548 5551 5554 5557 5561 5566 5570 5575 5580 5585 5590 5594 5599 5603 5607 5612 5615 5620 5625 5629 5632 5635 5637 5640 5644 5647 5651 5655 5658 5661 5663 5666 5668 5670 5674 5677 5679 5681 5683 5685 5689 5693 5696 5700 5703 5705 5707 5711 5713 5715 5718 5720 5723 5725 5726 5727 5730 5733 5738 5739 5737 5744 5751 5750 5751 5756 5756 5756 5759 5759 5759 5760 5760 5761 5762 5764 5766 5767 5767 5767 5767
5508 5513 5519 5524 5529 5535 5540 5543 5546 5549 5552 5557 5562 5566 5571 5576 5581 5586 5591 5596 5600 5604 5609 5612 5617 5621 5625 5628 5630 5633 5637 5642 5646 5649 5652 5655 5657 5660 5662 5663 5667 5670 5672 5674 5676 5678 5682 5686 5689 5692 5695 5696 5699 5703 5706 5707 5710 5713 5715 5717 5720 5722 5724 5726 5730 5735 5735 5735 5741 5744 5743 5748 5754 5753 5753 5755 5755 5755 5754 5754 5756 5757 5759 5760 5760 5760 5760 5760
5505 5511 5517 5521 5525 5530 5534 5538 5543 5546 5549 5554 5559 5564 5568 5572 5577 5583 5587 5591 5596 5601 5606 5610 5614 5617 5620 5624 5626 5630 5634 5638 5641 5644 5647 5650 5653 5657 5658 5660 5663 5665 5667 5669 5671 5674 5678 5681 5684 5688 5688 5690 5696 5700 5700 5702 5704 5704 5706 5711 5715 5718 5721 5724 5728 5732 5732 5733 5737 5737 5738 5746 5752 5750 5750 5751 5750 5750 5748 5748 5749 5750 5751 5753 5753 5754 5754 5754
5503 5508 5514 5518 5522 5525 5529 5534 5538 5541 5546 5553 5558 5562 5566 5569 5574 5579 5582 5586 5591 5596 5601 5606 5609 5612 5615 5619 5623 5627 5631 5633 5636 5639 5641 5643 5647 5649 5651 5654 5657 5659 5661 5664 5666 5669 5673 5676 5680 5682 5682 5687 5693 5694 5695 5697 5693 5691 5700 5710 5714 5717 5720 5722 5724 5726 5728 5729 5730 5731 5736 5743 5745 5743 5744 5745 5745 5744 5742 5742 5742 5743 5745 5746 5746 5747 5748 5748